LEASAT 5 1 20410U 90002B 21054.44665691 -.00000087 00000-0 00000-0 0 9997 2 20410 11.6426 2.0615 0009012 22.4531 197.9284 0.99590925 99109 LEASAT 5 PKM [SSUS-A] 1 20411U 90002C 21055.37752196 .00001272 00000-0 35953-3 0 9992 2 20411 27.2131 112.5564 4604133 300.0380 22.2068 6.22329260608382